Location: Ridgway Nature & Science Center
(38.1460°N, 107.7553°W)
Time: 14:17:25
(UTC-07:00)

Hubble Space Telescope - Pass Details

Date: 31 October 2021
Orbit: 534 x 538 km, 28.5° (Epoch: 06 December)

Event Time Altitude Azimuth Distance (km) Brightness Sun altitude
Rises 20:05:19 0° 243° (WSW) 2,657 5.4 -22.7°
Reaches altitude 10° 20:07:59 10° 226° (SW) 1,767 4.0 -23.2°
Enters shadow 20:10:43 20° 185° (S) 1,240 2.6 -23.7°
